Theta_e
315 317 316 315 316 318 320 320 320 321 319 317 317 315 317 319 319 319 319 318 324 330 329 329 333 343 352 353 353 354 353 357 358 362 358 354 351 350 350 346 342 336 336 341 343 343 343 343 343 343 342 343 342 337 334 332 323 324 330 333 335 332 334 339 341 340 339 336 334 336 337 336 335 336 337 340 342 342 343 343 344 343 344 342 341 341 341 341 340 339 339 339 339 339 338 337 332
316 317 316 316 320 321 323 321 319 319 317 315 316 316 317 320 321 320 318 321 329 332 331 331 335 343 350 351 351 353 353 352 352 355 354 351 350 349 347 344 339 336 334 335 340 343 344 344 343 342 342 342 340 336 335 331 323 325 330 332 333 331 336 341 341 341 340 338 334 333 334 334 333 334 336 340 341 340 342 342 342 342 343 341 340 341 341 341 340 339 339 339 338 338 337 334 329
316 319 319 320 322 321 322 320 320 317 316 315 314 317 318 319 319 320 323 329 336 334 332 333 339 341 349 354 351 354 355 350 349 351 351 351 349 348 346 342 337 335 333 333 337 342 344 344 343 342 341 340 338 336 336 332 324 325 329 332 332 332 338 342 341 342 341 339 336 333 332 333 334 336 339 341 342 342 343 342 342 341 340 340 341 341 341 341 340 340 339 339 337 337 336 330 327
317 319 321 322 320 318 321 323 323 318 316 315 314 319 320 319 318 322 327 331 333 334 333 337 348 347 350 355 351 353 354 348 349 351 352 351 349 348 347 342 338 336 335 334 334 338 344 345 344 343 341 340 338 337 337 333 326 326 329 332 332 334 340 342 342 342 342 340 336 334 334 334 337 339 340 342 342 343 343 342 342 341 340 340 340 340 341 340 340 340 338 338 337 336 333 327 327
317 319 320 321 319 318 322 324 325 320 317 316 315 319 321 319 320 322 323 325 326 330 328 336 351 351 349 352 351 353 354 351 350 351 352 350 349 348 347 342 339 339 338 334 331 335 344 346 343 343 342 340 338 337 337 335 329 327 330 332 332 336 341 342 342 342 341 339 335 334 335 336 338 341 341 341 342 342 342 342 342 341 341 339 339 338 339 339 340 340 339 339 336 335 331 326 328
316 317 318 319 320 318 321 322 321 319 319 320 318 320 321 319 320 320 321 322 323 326 324 340 352 351 352 349 349 351 352 354 350 350 352 349 349 348 345 341 340 343 340 334 330 332 339 341 341 342 342 340 339 338 338 335 330 328 332 333 333 338 342 342 342 342 340 337 334 334 334 336 339 341 341 341 341 342 342 342 341 340 340 339 338 338 339 339 339 340 340 339 336 332 328 326 329
315 315 317 319 319 318 321 321 320 319 319 321 321 321 321 319 320 319 321 321 321 323 324 341 349 351 354 349 350 351 348 352 350 350 352 349 348 346 343 342 343 345 341 334 329 329 332 332 335 340 341 341 340 340 338 335 331 330 333 333 334 340 343 343 342 341 339 335 332 331 332 335 339 340 340 341 341 341 340 340 340 339 339 338 338 338 340 339 340 340 340 338 336 332 328 328 329
314 314 316 319 319 318 321 321 320 321 320 321 319 320 321 319 320 319 320 319 320 323 320 334 347 355 355 351 354 352 348 350 351 352 352 350 348 345 343 344 346 346 342 335 329 328 329 329 333 339 341 341 342 341 339 336 334 332 334 335 337 342 343 344 341 340 337 333 330 330 332 334 337 339 340 340 340 339 339 339 338 336 336 336 337 339 339 339 339 339 339 337 335 333 329 329 329
312 313 315 317 318 316 317 317 318 319 319 319 318 320 323 319 320 320 319 319 319 321 321 332 348 359 354 352 355 351 350 351 351 352 351 351 349 344 344 346 347 347 343 336 329 327 331 335 337 340 341 341 344 342 340 338 336 335 337 338 340 343 344 343 340 337 335 331 330 332 334 334 336 337 338 338 338 338 337 337 336 336 336 336 337 338 338 338 338 338 338 337 334 332 331 331 330
312 313 317 318 318 315 312 312 314 316 317 318 317 318 321 319 320 319 318 320 318 322 337 343 349 356 354 354 356 352 351 351 350 351 351 351 349 346 346 347 347 347 345 337 329 327 335 341 341 340 342 344 345 343 342 339 336 339 341 341 343 344 344 342 337 333 331 330 332 335 335 335 336 337 337 338 338 339 338 337 337 337 338 337 337 337 337 337 338 338 338 337 334 332 332 331 330
314 313 316 318 317 315 312 312 312 314 316 316 317 318 320 319 320 320 319 320 318 321 338 351 354 354 354 355 355 352 351 351 351 352 351 350 350 349 348 348 347 347 346 337 329 332 340 344 343 342 344 345 345 343 341 338 338 341 343 344 344 344 343 340 333 329 329 332 335 336 337 337 337 337 337 337 338 340 339 338 338 339 339 338 337 336 336 337 338 338 337 337 335 332 332 331 330
315 315 316 317 317 317 316 314 313 316 316 317 317 318 320 319 320 320 319 319 321 318 324 349 355 353 356 356 355 352 351 352 351 351 351 351 351 351 349 349 348 348 345 335 330 338 343 345 345 345 345 345 344 342 341 339 340 342 344 344 344 344 341 336 332 332 334 336 339 339 338 338 337 337 335 334 337 340 340 339 338 338 338 337 336 336 336 337 337 338 337 336 335 333 333 332 330
315 316 316 316 318 317 316 315 315 318 316 317 318 319 319 319 320 319 322 319 319 321 322 345 351 351 357 357 355 353 353 352 351 351 350 351 351 351 350 349 348 347 344 333 332 340 343 344 345 344 344 344 343 341 340 340 342 343 344 344 344 342 335 331 332 335 337 338 339 339 338 338 337 336 333 332 335 338 337 336 335 335 335 334 334 335 335 335 336 337 337 336 335 334 333 332 331
316 316 316 316 318 315 314 312 313 314 313 318 318 319 320 319 322 321 325 320 325 336 339 348 349 354 357 357 357 356 354 351 350 350 350 351 351 351 349 349 348 346 341 334 335 341 343 344 344 344 344 343 342 341 341 342 343 343 343 344 342 336 329 330 335 337 337 337 337 337 337 336 336 336 334 332 334 334 334 332 331 331 330 331 332 334 334 333 333 335 336 335 334 332 332 331 331
316 317 317 316 316 315 315 314 314 312 313 319 318 320 320 319 323 324 326 321 332 344 345 348 346 353 356 357 358 355 353 351 350 350 350 351 350 350 349 348 347 343 340 337 339 342 343 344 344 344 343 342 343 343 343 343 343 343 343 342 336 332 333 336 338 337 337 337 336 335 336 336 336 336 335 334 333 333 333 332 332 331 330 329 330 331 332 331 329 330 333 333 333 332 331 330 330
315 316 316 317 315 314 315 316 316 314 315 320 318 320 319 320 322 324 324 321 338 347 347 350 346 350 353 354 354 352 352 351 350 350 350 351 350 350 348 347 345 343 341 340 342 343 342 342 342 343 343 343 343 343 343 343 342 342 341 338 334 334 337 336 337 338 337 337 336 335 335 336 336 336 335 335 334 334 334 334 333 332 331 331 329 328 329 328 327 329 330 331 331 331 330 329 330
315 315 316 315 315 313 315 316 316 315 316 319 319 319 318 321 322 323 325 328 344 352 352 354 352 350 351 351 352 351 351 350 350 350 351 351 350 349 349 347 345 344 342 342 343 342 340 340 342 343 343 343 342 342 342 341 340 339 338 338 337 337 334 333 337 337 336 337 337 335 335 336 336 334 335 335 335 334 334 333 332 331 332 332 328 325 326 326 327 328 328 329 329 329 330 329 330
314 316 315 314 314 314 315 316 317 316 318 320 319 320 319 320 323 326 324 332 346 353 353 354 354 353 352 351 352 351 350 350 350 350 350 350 349 349 349 347 346 345 343 342 342 341 340 340 342 342 342 342 341 341 340 339 337 336 336 336 334 332 331 334 337 337 337 337 337 336 336 337 335 334 335 335 334 334 332 330 330 331 333 330 326 324 325 325 326 326 325 326 327 328 328 328 328
314 316 316 314 315 315 316 316 317 317 317 319 320 321 320 319 324 328 326 330 343 354 355 354 355 353 352 351 351 351 350 350 350 350 349 348 348 349 348 347 346 344 343 342 342 341 341 341 341 340 339 338 337 337 337 337 337 335 335 332 328 329 333 336 336 336 337 336 336 337 336 336 334 332 332 333 333 332 330 327 329 331 331 327 325 326 326 325 325 323 323 325 326 327 329 329 330
314 316 316 315 315 315 316 317 317 317 318 319 319 319 319 319 321 326 328 329 338 350 356 356 356 355 352 351 350 350 350 349 350 350 349 348 349 348 348 347 346 344 343 342 342 342 341 341 341 338 336 334 333 333 335 337 337 335 332 330 329 331 335 337 335 336 337 336 337 337 334 332 330 327 330 334 333 330 328 327 328 328 327 326 327 327 327 325 325 324 323 325 327 328 330 331 331
315 315 315 315 315 316 316 317 317 317 318 318 319 319 318 318 318 321 328 332 336 344 353 355 354 354 353 351 351 350 350 350 350 350 350 349 349 348 348 347 346 344 343 342 342 341 341 341 340 338 336 335 334 333 334 336 334 331 330 331 332 333 335 336 335 336 336 336 336 333 330 328 326 328 334 336 331 328 329 329 328 328 327 327 329 331 329 327 328 329 328 327 327 328 329 330 331
314 315 315 316 315 316 316 317 317 316 318 318 318 319 317 317 319 318 322 333 337 341 349 353 351 352 352 352 351 351 351 352 351 350 349 349 348 348 348 347 346 344 342 341 342 342 341 341 339 338 336 336 336 334 334 334 331 330 331 332 333 333 334 335 335 335 334 333 332 330 329 328 327 332 337 337 331 329 330 331 332 333 332 330 331 334 333 331 330 332 331 329 330 329 330 331 332
313 314 315 316 316 316 316 316 317 317 318 317 317 317 318 317 319 318 318 326 333 339 348 351 349 350 350 350 351 351 353 353 352 350 350 349 348 348 347 346 346 344 343 342 341 342 341 340 339 338 337 337 337 336 334 333 332 332 332 332 334 334 333 333 333 332 331 331 331 331 332 331 332 335 337 336 332 332 333 335 336 336 336 334 332 333 334 334 332 333 332 331 331 330 331 331 331
313 313 315 316 317 316 316 317 316 318 319 317 318 317 317 317 317 319 317 324 335 340 347 348 347 349 349 350 351 352 353 352 351 350 349 347 345 343 342 344 345 343 343 342 342 342 340 340 339 338 338 338 337 336 334 334 335 335 333 332 334 333 333 332 331 330 330 330 331 332 335 335 335 337 337 336 334 335 336 336 336 336 336 336 332 331 333 334 333 333 333 332 331 330 331 332 332
313 313 314 316 316 317 316 317 316 317 318 317 318 317 317 317 317 319 316 326 340 342 344 345 346 347 349 351 352 352 351 351 351 349 346 344 343 341 339 340 343 343 342 341 340 339 338 338 339 339 338 338 337 336 336 336 337 336 334 333 334 333 333 332 331 330 330 332 333 333 335 336 337 337 337 337 336 337 337 335 334 334 335 335 333 331 332 334 333 332 332 331 331 331 331 332 332
313 313 314 316 316 317 316 317 316 316 317 317 317 316 316 317 317 319 316 322 338 343 343 345 345 347 348 350 351 350 349 351 351 348 345 343 343 342 339 339 340 341 340 338 338 337 337 338 339 340 339 337 337 337 337 337 337 336 335 333 333 333 332 333 333 331 333 335 334 333 334 336 336 337 337 337 337 337 336 335 334 334 334 334 333 333 333 333 333 331 331 331 331 332 332 332 332
313 314 314 315 315 316 316 316 316 316 317 317 317 316 316 317 315 318 317 319 336 344 345 345 346 349 349 349 350 350 350 351 350 349 347 344 344 342 340 339 337 338 338 337 337 337 337 338 339 340 339 337 337 338 338 337 336 336 334 333 334 334 332 333 334 334 334 332 330 333 334 335 335 336 337 337 337 337 336 335 335 335 334 334 333 334 334 333 333 331 331 332 333 333 333 333 333
314 314 313 314 315 315 316 316 316 317 317 317 317 316 315 316 315 316 318 317 329 341 346 346 347 348 349 350 350 350 351 349 347 348 349 346 344 342 340 338 336 336 336 335 337 338 337 338 339 339 338 338 338 338 338 336 336 335 335 334 334 334 333 332 333 333 332 328 330 334 335 335 335 335 337 337 336 336 336 335 335 334 334 334 334 334 334 334 333 332 332 333 333 333 333 333 333
314 314 314 314 314 315 316 316 317 316 317 318 317 315 315 315 315 315 318 317 319 334 345 344 344 346 348 350 350 350 350 347 346 346 348 346 340 339 339 337 335 334 334 334 336 337 337 338 339 338 338 338 338 339 338 336 335 336 335 335 333 333 332 332 332 331 330 329 332 335 335 335 335 334 335 336 336 336 335 335 335 334 334 334 334 334 334 334 333 333 332 333 332 332 333 332 332
314 314 314 314 314 315 316 316 317 316 316 319 315 312 314 315 315 316 317 317 315 326 338 340 340 343 345 348 349 349 349 348 347 346 347 343 335 336 338 336 335 333 334 335 336 336 336 338 338 337 337 338 338 337 337 337 336 336 335 334 333 333 332 332 332 332 333 334 334 335 335 335 334 334 334 334 335 335 334 334 335 334 334 334 334 333 333 333 332 332 332 332 331 332 332 332 332
314 313 314 314 313 313 316 316 316 315 316 318 315 311 314 315 315 316 316 317 316 319 331 338 338 339 343 346 346 347 349 347 345 347 345 336 333 335 336 335 334 333 335 335 335 335 336 338 338 337 337 337 337 336 336 336 336 335 334 334 333 333 333 332 333 333 335 335 335 335 334 333 333 333 333 333 333 334 334 334 334 333 333 333 333 332 332 332 331 331 331 331 331 331 331 331 331
314 312 313 314 312 312 315 316 315 315 315 317 315 312 315 316 315 317 315 316 317 316 326 335 337 338 341 342 342 345 348 347 345 345 338 332 334 335 334 334 334 334 335 334 335 337 338 338 338 338 337 336 336 336 335 334 334 334 333 333 333 333 333 333 333 334 334 335 334 334 333 333 333 333 333 333 333 334 334 333 333 333 332 332 332 332 332 332 331 331 331 331 331 331 331 331 330
315 313 312 314 312 311 313 314 315 314 315 316 315 313 315 316 316 316 315 316 316 316 322 331 336 338 339 339 340 343 350 352 345 337 333 334 335 334 334 334 334 335 334 335 336 338 339 339 338 338 337 336 337 337 336 334 334 334 333 333 333 333 333 334 333 333 334 334 334 334 333 333 333 333 333 333 333 333 333 332 332 332 332 332 333 333 333 332 331 330 330 330 331 333 333 332 330
317 314 313 314 312 311 311 312 314 314 314 315 315 314 315 317 317 315 315 315 315 318 321 328 337 338 338 338 339 345 351 349 340 333 333 336 334 334 334 334 335 334 334 335 337 338 339 338 338 337 336 336 338 338 337 336 336 334 334 334 333 333 332 333 333 333 334 333 333 333 333 334 334 333 333 334 333 333 332 333 333 332 333 333 333 333 332 331 331 330 330 330 331 333 333 332 330
316 315 314 313 312 311 310 311 313 314 314 315 314 314 315 317 318 317 317 316 316 319 321 329 337 337 338 338 339 346 348 341 334 333 335 334 333 335 334 333 334 334 333 335 336 337 338 338 338 336 336 336 337 338 337 337 336 334 334 333 332 332 332 332 333 333 334 334 334 333 333 333 334 333 333 333 333 332 333 333 333 333 333 333 332 332 332 332 331 331 331 331 332 333 333 332 331
313 314 314 312 311 311 311 312 314 314 314 314 314 313 313 316 317 318 318 319 319 321 322 330 336 337 337 337 338 343 339 334 333 333 333 333 333 333 332 331 332 333 333 334 336 337 337 338 337 337 337 337 337 338 338 336 335 334 333 332 331 331 331 332 333 334 334 334 334 334 334 334 334 333 333 333 333 333 333 333 333 333 333 333 332 332 332 332 331 331 332 333 333 333 333 333 331
316 314 313 312 312 313 314 314 314 315 314 313 315 315 314 315 318 318 319 320 321 323 324 327 334 338 336 335 337 335 332 331 332 332 332 332 331 331 331 331 332 333 333 334 336 336 336 337 337 338 338 337 337 337 336 334 334 334 333 333 332 332 331 332 334 334 334 334 334 334 334 334 334 333 333 333 333 333 333 333 332 332 332 333 332 332 332 333 332 332 333 334 333 333 333 332 332
319 316 315 314 314 314 316 317 315 316 316 314 316 317 315 316 318 318 321 323 322 326 328 325 332 335 334 336 333 332 332 331 331 332 332 331 331 331 331 332 332 333 334 334 336 335 336 337 337 338 337 335 334 333 332 332 332 333 333 333 333 332 332 333 333 333 333 332 333 334 334 333 333 332 331 331 331 331 331 331 332 331 331 332 332 331 332 333 332 332 332 333 333 332 332 332 332
321 319 318 317 317 315 317 321 317 316 320 317 316 318 318 321 321 320 323 325 323 328 330 327 330 333 334 335 334 333 332 331 332 332 331 331 331 332 331 332 333 333 334 335 335 336 336 337 337 337 335 334 333 333 334 333 332 331 332 332 332 332 332 332 332 331 331 330 330 330 329 329 329 329 329 329 329 329 329 329 330 330 329 330 330 330 331 332 332 332 332 333 332 332 332 332 332
323 322 320 317 317 314 315 321 320 319 325 324 322 323 326 328 326 325 325 326 327 328 328 329 332 334 332 333 335 335 335 334 332 331 331 332 332 332 332 332 333 334 335 335 335 336 336 337 336 335 335 335 335 336 337 336 334 333 332 331 330 331 330 330 330 329 328 328 328 328 327 327 327 328 329 330 329 329 329 329 329 329 329 329 329 328 329 331 332 331 330 332 331 331 332 331 332
325 324 320 318 318 316 315 320 323 326 327 328 326 323 330 335 326 325 326 328 329 325 328 330 331 333 332 334 336 336 337 335 332 331 331 332 332 332 332 332 334 334 334 334 335 335 335 336 335 334 335 336 337 337 337 335 333 332 330 329 329 329 329 329 329 328 327 328 328 328 328 327 327 327 327 327 328 328 328 328 327 328 328 328 328 328 329 329 330 330 329 330 330 330 330 331 330
324 325 324 321 318 318 318 317 321 322 319 324 323 317 327 336 324 323 325 328 329 328 331 331 332 334 333 335 336 335 335 333 330 330 331 332 332 332 332 333 334 334 333 333 334 334 335 335 334 334 335 336 336 336 335 333 331 330 328 328 327 327 328 328 328 327 327 327 327 326 326 326 326 326 326 326 327 327 327 326 325 326 327 327 327 327 328 328 329 329 329 329 329 329 329 330 329
320 323 323 321 318 318 319 317 316 317 319 327 326 318 325 330 322 324 326 329 333 333 333 334 334 335 334 335 334 332 332 332 330 330 331 332 332 332 333 333 334 334 333 333 333 334 334 333 333 333 335 334 334 334 333 331 330 329 328 327 326 325 326 326 326 326 326 326 325 325 325 325 326 327 326 326 326 326 326 326 325 325 326 326 326 327 327 328 328 328 328 328 328 328 329 329 329
319 323 320 317 316 316 319 317 316 320 323 326 326 322 320 320 324 330 327 331 336 335 335 337 334 335 336 334 334 332 331 331 330 331 332 332 332 333 332 333 333 333 333 333 333 333 333 333 332 332 333 332 332 332 332 331 330 329 328 327 326 326 326 325 325 325 326 326 325 325 325 325 325 325 325 325 326 326 325 324 324 324 325 325 326 327 327 327 327 328 328 328 328 328 328 328 328
319 322 319 316 316 316 318 316 316 323 323 318 320 322 318 318 329 331 325 331 334 334 336 337 336 337 336 334 334 332 331 331 331 331 332 332 332 332 332 333 333 333 333 333 333 333 333 333 332 332 331 331 331 332 331 331 330 328 326 325 326 328 326 325 325 326 326 325 324 325 325 324 324 324 324 324 324 325 324 323 324 325 325 325 324 325 326 327 326 327 327 327 327 327 327 327 326
319 319 318 316 316 318 318 316 316 320 322 319 321 321 318 323 332 325 320 329 332 334 336 336 336 336 336 335 334 332 331 332 332 332 332 332 333 333 333 333 333 333 333 333 333 332 332 332 333 333 333 333 333 333 333 332 330 328 326 326 327 327 326 326 326 326 325 324 324 324 324 324 323 322 322 321 321 322 323 322 323 324 323 322 322 322 324 326 325 325 325 325 325 325 325 323 320
319 318 317 314 317 321 319 319 317 316 320 323 322 321 317 324 334 328 322 328 333 338 339 338 337 336 336 336 335 333 334 335 334 333 333 333 334 334 334 333 332 333 333 333 333 332 331 332 333 333 334 335 334 334 334 332 331 330 328 328 327 325 325 325 324 324 324 324 324 323 323 322 322 321 320 320 321 322 322 320 320 321 320 320 322 322 323 324 323 323 324 323 322 321 320 319 316
316 319 317 315 320 321 316 315 315 315 323 323 318 320 318 322 336 338 330 330 333 337 339 339 338 337 336 336 336 336 337 338 336 335 335 335 335 335 333 332 332 333 333 333 334 333 332 333 333 334 336 336 334 334 333 332 331 330 329 328 327 325 325 324 323 324 324 324 323 322 322 321 320 320 320 321 321 322 321 319 319 319 319 321 322 322 322 322 321 321 321 321 321 319 317 316 315
317 319 318 317 320 321 317 318 318 321 328 325 315 321 326 327 334 336 332 331 332 334 338 339 338 337 336 335 336 337 337 337 337 336 336 335 335 335 334 333 332 332 333 333 333 333 333 334 334 335 336 336 335 333 332 331 330 329 329 328 326 325 324 324 324 324 323 322 322 322 321 320 319 319 320 320 321 321 320 320 319 318 318 319 319 319 320 319 319 319 318 318 318 317 316 315 314
317 317 319 320 320 322 320 320 321 321 325 325 318 323 330 332 335 334 332 331 331 333 336 338 338 336 336 335 335 335 334 334 336 336 336 336 336 334 334 334 333 332 332 332 333 333 334 334 335 334 335 336 334 331 331 330 329 328 328 327 325 325 324 325 325 323 322 322 322 321 320 319 319 318 319 319 320 320 320 319 319 318 317 317 318 318 318 318 317 317 316 316 316 316 314 314 314
318 316 319 320 322 328 327 323 322 322 327 331 325 323 328 334 338 333 330 331 332 332 333 336 337 335 335 336 334 333 332 332 333 333 334 335 334 334 334 333 333 333 332 331 332 333 333 334 334 334 334 335 334 331 330 330 328 327 328 327 325 324 324 324 324 323 322 322 320 319 319 319 318 318 319 319 319 319 319 318 319 317 315 315 317 316 316 316 315 315 315 315 314 314 314 313 313
324 319 314 316 324 335 334 329 327 325 330 333 329 329 331 336 339 332 329 333 332 332 333 334 336 336 336 337 335 332 331 331 331 331 332 332 331 333 333 332 332 332 332 331 332 333 333 334 334 333 333 334 334 331 330 329 327 326 328 326 324 324 323 323 323 322 323 322 320 318 319 319 319 319 319 318 318 317 317 317 317 316 315 314 315 315 315 316 316 316 316 315 315 315 314 314 313
331 322 314 318 324 329 328 327 328 329 330 327 328 335 334 333 335 331 330 333 332 332 334 333 334 336 336 337 335 332 330 330 330 330 331 330 330 330 332 332 331 332 332 332 332 332 332 333 334 333 333 334 333 330 329 328 325 325 327 326 324 323 323 323 323 323 323 321 319 318 318 319 319 318 317 317 317 317 317 317 317 316 315 315 315 315 315 315 315 315 315 315 315 315 314 314 314
326 317 318 324 325 328 331 328 328 328 327 325 327 333 335 334 335 333 332 334 333 333 333 334 335 335 335 336 334 332 330 329 328 328 328 329 329 329 329 330 331 332 332 332 332 332 332 333 333 333 333 333 332 329 327 326 325 326 326 326 324 323 323 323 323 323 322 320 319 318 319 319 318 317 316 316 316 317 318 318 317 317 316 316 316 315 314 314 314 314 315 315 314 314 314 314 314
318 317 322 328 330 334 334 328 327 329 328 328 329 329 333 333 332 333 335 334 334 333 333 334 335 334 336 335 333 332 331 329 329 329 328 328 328 327 327 327 329 330 329 328 329 331 332 333 333 333 332 331 330 328 326 327 328 327 327 325 324 323 323 323 323 321 321 320 319 318 319 319 318 316 315 316 317 318 318 317 317 317 317 317 317 316 315 315 316 316 315 315 314 313 313 313 314
316 318 318 324 332 334 329 325 328 333 332 331 331 333 336 335 331 333 335 334 334 334 334 334 334 334 336 336 334 331 329 329 329 329 329 328 327 327 326 326 326 327 326 325 326 328 330 333 331 331 332 331 330 329 328 329 328 327 327 326 325 325 323 323 322 320 320 320 319 319 319 319 318 316 317 317 318 318 317 318 318 318 318 317 317 317 317 317 317 316 315 315 315 315 314 315 315
316 317 317 319 324 325 323 322 322 325 329 331 333 334 336 335 332 333 334 333 333 333 334 335 334 334 335 335 335 332 329 328 327 327 328 327 326 327 327 326 325 325 325 325 324 325 329 332 331 331 333 332 332 331 330 330 328 327 327 326 326 326 324 322 321 320 321 320 320 319 319 319 318 318 318 318 318 318 318 319 319 318 318 318 318 318 318 319 318 317 317 317 316 316 316 316 316
316 318 320 319 321 323 323 325 325 322 323 328 332 334 334 332 331 331 331 332 332 330 332 334 334 335 334 333 334 334 332 330 328 328 328 326 326 326 327 326 326 326 325 324 323 325 329 331 331 331 332 332 332 331 331 330 329 328 328 327 326 326 324 323 321 320 321 321 320 320 319 318 318 319 319 319 319 319 319 319 319 319 319 320 320 320 320 321 320 319 320 320 318 317 317 317 317
Wind_Speed
9 7 4 3 4 4 5 2 1 2 2 3 5 4 7 9 10 10 14 13 5 4 2 7 9 13 11 11 13 14 11 6 3 3 4 5 18 30 31 31 32 32 30 25 24 23 22 21 21 22 21 22 22 22 22 20 21 22 22 22 21 22 20 18 18 17 17 17 17 18 18 18 17 17 17 17 19 18 18 18 17 17 17 16 15 15 13 13 13 13 14 14 15 14 13 12 14
9 6 4 3 5 3 3 2 1 2 2 4 6 6 9 6 7 12 15 11 2 2 2 9 11 17 18 14 13 15 13 10 9 8 8 19 25 26 30 32 33 32 30 26 24 23 23 22 21 21 21 22 21 22 21 20 21 22 22 22 22 22 20 18 18 17 17 16 17 17 17 17 17 16 16 16 17 17 18 17 16 16 16 16 15 15 14 13 12 12 13 13 13 13 11 12 16
9 5 6 5 5 3 2 1 2 2 3 5 6 6 7 7 11 10 6 3 2 2 4 10 11 12 17 17 14 13 9 7 12 11 9 21 19 18 28 30 32 31 29 27 24 24 24 22 21 21 21 21 21 22 21 20 21 22 22 21 22 22 19 18 17 17 16 16 16 17 16 16 16 15 16 15 16 17 17 16 16 15 15 16 15 15 14 13 12 11 11 11 12 11 11 15 18
9 6 8 6 2 2 1 1 3 2 4 5 6 6 6 9 11 4 3 2 4 5 5 10 10 8 16 18 12 10 8 6 10 11 7 16 21 22 27 27 30 29 27 26 24 24 23 22 21 21 21 21 21 22 21 21 21 22 22 21 22 21 18 17 17 16 16 16 16 17 17 16 16 15 16 15 15 17 16 15 15 14 15 16 15 14 13 13 12 11 11 10 10 9 12 17 19
9 8 9 6 1 1 1 2 3 4 6 4 4 7 6 7 2 4 2 5 5 5 6 7 6 6 14 12 6 5 6 7 10 14 12 19 29 28 25 27 28 26 25 25 24 24 22 22 21 21 21 21 21 22 21 21 21 22 22 22 23 21 18 17 16 16 15 15 16 17 17 17 16 15 15 15 15 16 16 16 15 14 14 15 14 14 13 12 12 12 11 10 9 8 12 17 18
8 7 8 6 3 2 0 3 3 5 7 5 6 9 9 7 2 7 3 4 5 4 6 7 8 8 10 8 7 5 5 7 9 15 18 24 30 27 27 29 27 24 24 24 24 23 23 22 21 21 21 21 21 21 22 21 21 22 22 23 23 20 17 17 16 15 15 15 16 16 16 17 16 15 15 16 16 17 17 16 15 14 13 13 13 13 13 12 12 12 11 9 7 6 11 15 16
5 4 4 3 2 2 1 4 5 6 7 8 10 11 10 7 2 6 5 3 4 4 5 7 13 12 8 5 6 9 11 12 11 18 24 27 29 27 28 28 26 23 23 24 23 23 23 22 22 22 21 21 21 21 22 22 22 22 22 23 22 19 17 16 15 15 15 15 16 16 16 16 16 15 15 15 15 16 15 15 14 13 12 11 12 13 12 11 11 11 10 8 5 5 9 13 14
6 2 1 1 1 2 2 5 6 7 8 10 12 11 8 5 3 4 4 3 1 1 3 8 16 13 6 8 6 8 16 21 24 28 28 28 28 27 28 28 26 23 21 23 23 22 22 21 22 22 21 20 21 22 22 22 21 22 23 23 21 19 17 16 14 14 15 15 16 16 16 15 15 15 14 14 13 13 13 12 12 12 12 11 11 12 11 11 11 10 8 6 5 5 8 11 12
7 3 1 1 2 3 3 5 7 9 10 12 14 9 6 3 2 5 4 3 1 1 2 8 15 11 6 12 9 5 13 23 30 28 24 25 27 28 29 28 26 23 21 22 23 23 22 22 22 22 21 21 21 22 22 21 21 22 22 22 20 17 16 14 13 14 14 15 16 16 16 15 14 13 13 12 11 11 11 12 12 12 12 11 11 11 10 10 10 9 7 6 4 6 7 8 9
4 4 1 1 2 4 5 5 7 9 11 13 14 8 5 2 3 5 4 3 2 4 9 14 14 12 10 11 7 5 12 24 29 25 24 26 27 28 29 27 25 24 22 23 24 24 22 22 22 22 21 21 22 22 21 21 22 22 20 19 18 16 15 13 13 15 16 16 16 16 15 15 13 12 12 12 11 10 11 12 12 13 12 11 9 9 9 9 8 7 6 5 4 6 7 5 6
2 3 2 2 3 4 5 6 7 9 11 13 11 7 6 4 5 5 3 2 4 2 10 15 12 13 12 7 4 7 17 25 28 26 26 28 26 26 27 27 25 23 23 24 25 23 23 21 21 21 21 21 22 21 21 21 22 21 19 18 17 15 14 13 14 16 17 15 14 14 13 13 12 11 11 10 10 10 12 12 12 12 11 10 9 8 8 8 7 6 5 5 5 6 6 4 4
2 3 2 2 3 4 6 6 9 10 10 12 8 5 6 7 6 5 4 1 2 4 4 10 10 12 11 5 3 9 18 22 27 27 27 28 25 24 25 25 24 23 22 24 26 24 23 22 21 21 21 21 21 21 21 22 22 20 19 18 17 16 14 14 16 17 16 15 12 12 12 11 11 11 10 9 10 11 12 12 11 11 10 9 9 8 8 8 7 6 5 4 5 5 5 4 3
3 4 2 3 4 5 7 7 9 9 8 8 5 4 5 7 5 5 7 2 3 6 2 12 13 11 9 5 4 7 12 17 26 27 27 27 23 23 24 23 23 22 21 24 25 24 23 23 22 21 21 21 21 21 21 22 22 20 19 18 17 16 16 16 17 17 16 16 14 12 11 11 10 10 10 9 10 11 11 11 10 10 9 8 8 8 7 6 6 6 5 5 5 4 3 3 3
4 3 2 4 4 5 6 7 8 7 6 5 1 3 3 4 3 5 7 2 3 2 6 14 12 11 9 6 5 4 7 18 25 26 26 26 23 23 23 22 21 21 22 24 25 24 24 23 23 23 22 22 21 21 21 21 20 19 18 17 17 17 18 18 16 15 15 16 16 14 12 10 9 9 9 9 9 10 10 9 9 9 8 7 8 8 6 5 5 5 5 4 3 3 3 3 4
6 2 3 4 4 5 6 7 8 6 5 5 3 2 3 3 4 7 6 4 7 7 9 10 6 9 9 8 7 6 11 21 24 25 26 25 24 24 24 22 20 22 22 23 24 24 24 24 23 23 23 22 22 22 21 20 18 17 16 16 17 17 18 16 14 15 15 17 17 15 13 11 9 9 8 8 7 8 8 8 7 7 7 7 7 7 6 5 5 5 5 3 3 3 4 3 3
5 3 3 4 5 6 6 7 8 6 5 5 4 1 4 4 5 5 3 4 7 8 10 4 2 6 12 9 12 15 18 24 25 26 26 25 26 25 24 23 21 22 22 22 23 23 23 24 23 23 23 22 22 22 20 18 16 15 15 15 16 17 15 11 12 16 17 18 17 15 14 12 10 9 8 7 7 6 6 6 7 7 7 7 7 7 7 7 7 7 7 5 5 4 4 4 4
4 4 3 5 6 6 7 7 6 4 3 4 5 4 4 4 3 1 3 8 11 11 12 8 7 6 11 12 22 26 24 27 28 28 25 23 24 22 21 22 22 21 21 21 21 23 23 23 23 23 22 21 21 21 19 17 15 15 16 17 15 14 12 10 13 18 18 18 17 14 13 12 11 9 7 7 7 6 5 6 7 7 7 8 9 10 10 9 9 8 8 7 6 5 5 5 5
4 4 4 6 6 8 10 8 7 3 2 3 6 6 4 4 3 3 2 10 14 13 11 12 14 11 13 21 29 29 27 29 29 27 22 20 20 18 17 19 22 20 20 21 21 23 24 24 24 23 22 21 21 20 19 17 16 17 18 17 13 10 10 11 14 18 18 18 16 14 13 12 10 9 7 7 7 6 6 6 6 7 7 9 11 12 11 10 9 9 9 8 8 7 7 8 8
4 3 5 6 7 10 11 9 11 6 3 3 5 6 5 4 3 1 2 6 13 13 9 14 17 14 16 20 24 25 26 25 24 24 19 16 17 16 15 17 20 20 21 22 22 23 24 24 24 23 23 22 21 20 19 18 17 17 17 15 12 9 9 12 15 16 18 18 16 14 13 12 10 9 7 6 5 6 7 6 6 7 8 10 12 11 10 10 10 10 10 10 10 10 9 8 7
5 5 4 6 9 11 12 12 14 10 3 1 3 3 6 4 0 2 3 4 10 12 8 11 14 14 14 14 16 20 22 20 20 21 17 15 17 17 17 18 19 20 22 24 23 23 23 24 23 23 23 22 21 20 20 19 18 17 15 13 10 10 9 13 18 18 18 17 15 14 13 13 12 10 8 6 5 7 7 7 7 8 9 10 11 9 8 9 10 11 11 9 8 7 5 3 2
4 6 6 8 9 10 14 14 13 13 5 1 2 3 3 5 2 2 5 5 5 9 10 12 15 15 15 13 13 15 16 15 16 17 15 15 16 17 18 19 20 22 25 25 23 23 23 24 24 23 22 21 20 21 21 20 19 17 14 11 9 10 11 16 21 20 18 17 15 15 14 14 13 12 11 8 6 7 7 8 8 9 10 10 9 8 8 7 7 8 9 7 4 2 0 3 4
5 6 9 12 10 11 15 12 11 12 5 5 5 3 3 6 3 4 3 4 4 9 13 15 16 15 15 14 11 12 13 13 13 13 14 15 18 19 19 20 22 25 26 25 23 23 23 24 24 23 22 21 20 21 21 19 18 16 14 11 10 11 12 18 22 21 20 18 16 16 16 15 14 13 11 8 7 7 8 8 9 9 9 8 6 5 5 5 4 5 5 4 2 0 1 3 4
6 6 8 12 11 13 14 11 9 8 5 6 5 5 5 6 3 3 5 2 6 12 16 16 15 14 15 13 11 11 12 12 11 13 13 14 15 15 17 21 23 26 25 23 23 23 23 23 23 24 24 22 21 21 20 19 16 14 13 12 12 12 14 19 23 22 21 19 17 16 15 14 13 12 10 8 8 8 8 8 8 8 7 6 5 4 3 2 1 1 1 0 2 2 2 2 2
9 8 8 11 11 12 12 12 10 3 1 3 4 7 8 4 2 3 7 1 13 16 15 16 15 14 14 12 11 11 11 10 11 13 13 14 12 9 11 19 25 26 23 21 21 22 23 24 24 24 24 23 22 21 20 18 16 15 14 14 14 14 16 19 20 20 20 19 18 16 14 13 12 11 11 9 9 9 8 9 9 8 8 6 6 4 3 2 3 2 3 4 4 3 3 1 3
9 9 9 10 10 12 11 11 10 5 4 4 3 4 8 6 1 4 8 5 19 18 16 18 16 14 12 11 11 10 9 8 10 11 15 17 14 11 11 15 24 25 22 21 21 21 22 23 23 22 23 23 22 20 20 19 18 17 15 15 15 16 18 18 18 19 18 16 15 15 13 12 11 10 10 9 9 9 7 8 8 8 8 7 6 5 3 2 3 3 4 4 3 1 2 1 2
7 9 9 10 11 11 11 12 12 7 3 5 6 6 7 6 2 3 10 3 16 17 18 19 17 16 12 10 10 9 10 9 9 11 16 18 14 15 15 14 18 19 22 23 21 20 22 24 23 20 22 23 21 19 20 19 19 18 16 15 16 18 19 18 17 18 17 14 13 13 13 13 11 9 8 8 9 8 6 6 7 7 7 7 6 5 5 4 2 1 1 1 2 1 1 2 1
7 9 9 11 12 11 11 13 11 7 2 5 3 4 7 5 2 2 9 1 14 16 16 17 17 16 13 11 10 10 11 10 11 12 14 16 15 17 16 15 17 20 24 23 20 20 24 26 24 21 21 22 22 20 20 20 19 18 17 16 17 18 18 17 18 18 16 14 13 12 13 13 11 9 8 8 8 8 7 7 7 7 7 6 6 5 5 4 2 1 0 2 2 1 0 1 2
9 10 10 11 12 11 11 12 10 7 3 5 3 5 6 4 3 5 9 5 12 16 14 16 15 13 13 13 11 9 8 11 14 12 11 13 14 17 19 19 20 21 23 21 20 23 25 27 25 23 24 25 24 22 22 21 19 19 18 17 16 17 18 19 19 18 17 15 14 13 12 12 11 10 10 9 8 8 8 7 6 6 6 6 6 6 5 4 3 2 1 2 1 2 2 1 2
9 9 10 10 10 10 9 8 9 7 3 6 5 6 6 4 5 8 10 10 6 15 16 15 13 12 12 11 10 8 7 11 12 10 12 13 18 23 22 22 24 22 22 19 18 23 25 27 26 24 25 26 25 24 23 21 19 20 18 16 17 18 20 20 19 18 18 16 15 14 13 12 12 12 12 10 9 8 8 7 6 5 4 5 5 5 5 3 4 3 2 2 2 2 2 1 1
7 7 6 7 7 7 6 5 8 9 4 7 6 4 6 6 8 9 11 11 7 11 16 14 13 12 11 10 8 7 8 9 8 10 14 21 26 26 23 21 23 23 23 18 16 22 25 27 25 22 23 24 23 23 24 22 20 19 18 17 17 19 20 19 17 17 16 14 12 12 11 11 11 12 12 11 10 9 7 6 5 5 4 4 5 5 3 3 3 4 3 3 3 2 1 1 1
5 6 5 4 4 5 5 5 8 8 5 8 7 4 6 7 9 11 9 11 11 7 13 14 13 12 11 9 8 8 7 7 10 13 19 29 30 28 25 22 22 22 20 15 14 21 24 24 24 23 23 24 23 24 24 23 21 20 19 17 17 17 18 16 15 16 15 13 11 10 9 9 10 10 9 11 11 9 7 6 5 5 4 4 5 4 3 3 3 3 3 3 3 2 2 3 2
4 4 5 3 4 5 6 7 8 9 7 8 7 4 5 7 9 12 10 10 12 9 11 14 13 13 11 9 9 8 6 8 12 17 27 32 30 29 27 25 25 23 19 18 18 20 21 20 22 24 25 26 25 25 26 25 23 20 19 19 19 18 16 14 14 13 13 12 11 10 9 10 10 10 11 12 11 8 6 6 6 6 5 4 5 4 3 3 3 3 3 2 2 3 4 4 4
3 4 4 4 5 4 5 9 11 12 9 8 9 5 3 6 10 12 10 10 13 10 10 14 14 14 12 9 8 8 8 8 12 23 31 32 30 30 28 27 27 23 22 27 29 26 24 21 22 25 26 27 27 27 27 26 23 20 21 20 19 17 14 13 12 11 10 10 9 8 8 9 10 12 14 13 10 7 6 7 8 7 5 5 5 4 3 2 3 4 4 2 3 5 5 5 5
4 4 5 6 6 5 5 7 10 13 12 9 11 9 5 7 11 11 8 11 14 11 12 15 14 12 11 9 7 8 9 9 13 22 29 31 30 29 27 24 24 22 22 25 27 27 26 23 25 26 26 27 27 27 26 25 23 21 21 19 17 16 14 12 11 10 10 8 8 8 9 10 11 12 12 12 9 6 5 6 7 7 6 5 4 4 4 2 2 4 5 4 4 5 4 4 5
6 5 5 5 7 8 9 8 8 11 14 13 11 11 10 10 9 10 8 7 8 9 10 12 15 13 11 10 8 8 10 14 16 22 28 30 30 28 24 19 18 18 19 20 23 26 26 25 27 28 28 28 28 28 27 25 23 21 20 18 17 17 14 13 12 11 9 8 9 9 10 11 11 10 10 11 9 7 7 7 8 8 7 6 5 5 5 3 3 3 5 5 5 5 4 4 5
11 8 4 5 6 8 12 13 11 11 13 15 12 11 13 12 9 10 9 5 7 10 12 11 13 12 10 9 7 11 16 17 18 23 28 28 27 25 22 19 18 19 20 22 25 28 27 27 28 29 29 29 29 29 28 26 23 21 20 20 18 16 13 12 12 11 10 10 11 11 11 11 10 9 10 11 9 8 8 8 8 7 6 6 6 5 4 3 3 3 5 4 4 5 4 4 4
11 9 7 8 7 7 11 14 14 11 11 14 11 9 13 12 10 11 10 8 9 7 13 10 11 11 8 9 13 19 19 15 16 20 22 25 25 22 19 20 23 23 23 25 27 29 29 29 29 28 28 28 28 29 28 28 28 25 24 24 22 18 15 14 13 13 13 12 12 12 12 11 10 10 10 10 8 7 8 8 8 7 5 5 5 4 3 3 2 3 4 3 4 4 3 3 4
9 7 6 8 7 8 13 16 15 11 9 10 10 9 12 11 10 12 7 6 5 5 11 9 12 12 8 14 18 19 16 13 15 15 13 18 21 20 21 24 27 27 27 28 29 31 31 29 29 28 28 27 27 28 28 28 30 30 29 28 27 24 20 20 19 17 16 15 14 14 14 13 12 12 12 11 9 8 9 9 8 7 5 4 4 4 4 3 2 3 3 4 4 4 4 3 4
6 5 4 5 6 7 12 14 8 6 8 5 8 6 7 9 9 10 6 7 6 6 10 8 11 12 13 18 17 17 15 13 14 11 10 16 18 19 23 26 27 28 30 30 29 31 32 30 29 29 28 26 26 26 26 27 28 29 29 29 30 29 26 23 21 20 18 16 15 15 15 15 14 15 14 12 10 10 10 10 9 7 6 5 5 4 4 4 3 3 4 5 5 5 4 3 4
3 3 3 5 7 6 7 9 8 5 5 5 6 2 3 4 3 6 6 6 5 6 8 11 15 16 17 17 15 16 16 14 14 11 11 17 18 18 20 22 24 26 26 26 28 31 32 30 30 30 27 25 24 24 24 24 24 23 25 26 28 29 27 24 22 21 18 17 16 14 13 13 14 15 14 13 11 10 10 10 9 7 5 4 4 4 3 3 3 3 4 6 7 7 6 4 4
3 3 4 5 9 8 4 7 8 7 5 5 7 5 5 4 4 6 6 3 6 6 12 18 16 16 16 15 14 14 14 14 15 12 10 13 16 16 18 19 21 22 21 23 28 30 30 30 31 30 27 25 25 25 24 22 21 23 26 27 27 27 26 25 25 23 20 19 17 14 12 12 14 15 13 13 13 12 12 11 10 9 7 6 7 7 7 5 4 4 4 5 7 7 8 7 5
3 3 6 8 12 10 5 8 8 5 4 1 5 3 4 5 4 7 4 4 7 7 14 15 12 13 14 13 12 12 11 10 12 12 12 12 15 17 18 20 21 19 19 23 27 28 29 31 31 29 28 26 26 27 26 23 24 29 32 30 28 27 25 25 26 24 22 20 18 17 15 14 16 15 13 12 13 13 12 10 10 11 10 11 10 10 10 10 9 7 5 5 6 6 8 8 7
4 4 6 10 12 9 5 7 6 1 1 2 4 5 3 5 5 7 3 6 8 11 13 12 11 11 11 10 10 10 10 9 10 11 12 13 15 18 18 21 22 20 21 26 27 26 28 29 29 29 27 26 28 30 28 25 27 29 30 29 28 27 25 24 25 24 22 21 20 19 17 16 17 17 15 14 14 13 11 9 9 10 10 11 12 11 11 12 11 9 7 6 7 6 7 9 9
5 5 6 10 11 8 6 4 5 3 2 2 1 6 2 3 5 7 5 7 9 13 12 9 10 10 10 10 9 10 10 10 10 10 11 12 15 18 20 21 21 22 25 27 27 26 27 27 27 27 26 26 29 30 28 26 27 27 27 28 28 26 24 23 25 24 22 21 21 19 17 17 16 14 14 15 13 11 10 8 8 11 12 12 13 13 12 12 12 12 11 10 10 8 9 11 10
6 6 8 9 9 10 7 4 6 2 4 3 3 4 2 3 6 7 4 8 8 12 13 10 10 10 11 10 9 10 10 10 11 11 12 12 15 18 21 21 20 23 26 27 27 27 27 27 26 26 26 27 29 30 28 25 25 26 28 28 26 24 24 26 27 24 21 21 20 17 16 16 15 14 14 14 12 12 10 11 11 15 16 14 13 13 13 13 13 13 14 13 13 11 11 11 10
7 7 8 8 8 8 6 5 4 1 4 3 5 2 2 3 5 5 2 5 6 7 10 10 9 9 9 9 9 9 9 8 10 11 11 13 16 18 19 20 20 21 24 26 25 25 26 27 27 28 28 28 29 28 26 24 24 26 27 27 26 27 28 28 27 23 21 20 20 19 18 17 16 16 15 13 13 13 12 14 16 18 17 15 14 14 14 14 13 13 13 13 12 12 11 11 12
7 7 7 7 7 5 3 3 2 1 1 4 6 4 3 2 5 4 3 4 7 9 8 9 9 8 7 7 8 8 8 7 8 9 10 14 16 16 17 19 19 19 21 22 21 23 25 25 26 28 27 26 28 26 24 25 25 25 26 28 29 31 30 28 26 24 23 23 22 22 20 18 17 18 18 17 16 15 14 16 19 18 17 16 16 15 15 14 13 13 13 12 12 13 13 13 14
7 5 3 3 5 4 3 1 2 2 4 4 6 5 4 2 4 4 5 1 8 11 10 11 11 9 7 7 7 7 6 7 9 10 10 12 14 14 17 19 19 20 21 20 20 22 23 23 25 25 23 25 26 25 25 27 25 23 27 30 30 29 29 28 27 25 25 24 23 22 20 18 18 18 19 19 17 16 16 17 18 18 17 17 16 14 13 13 13 12 12 12 12 14 15 15 16
5 5 4 2 2 3 1 2 3 4 4 5 7 4 3 2 4 4 5 6 7 10 11 12 12 11 9 9 8 7 6 7 8 10 10 10 10 11 15 19 20 21 21 21 21 22 22 22 23 23 22 24 25 24 26 27 23 23 28 29 28 28 28 28 27 26 24 23 24 23 21 19 19 18 19 18 17 17 17 18 18 18 18 17 16 15 14 14 14 13 13 13 13 14 15 16 17
2 4 5 4 2 1 2 3 2 3 3 6 4 4 2 1 2 4 8 8 8 10 10 10 10 10 10 10 10 8 7 7 7 8 10 9 9 12 15 18 19 19 20 22 21 22 22 21 21 21 21 23 23 23 26 26 22 23 26 26 27 28 28 27 26 25 23 24 25 24 22 21 20 20 19 19 18 17 18 19 19 18 18 16 17 17 15 14 14 15 15 15 15 16 17 17 17
4 4 5 4 4 4 3 2 2 3 3 6 2 4 1 3 2 2 9 9 9 10 8 8 9 8 9 10 10 9 7 7 6 6 7 5 7 14 18 18 18 18 19 21 21 21 21 20 20 20 20 21 22 22 24 24 21 20 21 23 26 27 26 26 25 23 24 25 25 23 23 22 21 20 19 19 18 18 18 19 19 19 19 18 18 17 16 16 17 17 17 17 18 18 18 18 17
3 2 2 4 5 5 3 3 4 3 1 3 2 1 2 3 2 2 9 9 10 11 9 10 9 8 9 9 9 9 7 7 7 7 6 4 4 12 17 20 19 18 19 21 21 21 20 20 20 19 20 20 20 21 22 22 20 19 18 20 24 24 23 24 24 23 23 23 22 22 23 22 21 20 19 18 18 19 19 20 20 19 18 18 18 17 17 17 17 17 17 18 18 17 18 18 17
2 2 2 4 4 7 5 2 2 4 3 2 0 2 1 2 1 3 8 9 9 9 8 9 8 8 9 7 7 8 7 7 7 7 7 6 6 9 12 19 19 17 18 21 22 22 20 20 19 18 19 18 18 19 21 21 20 18 17 19 21 21 21 22 22 22 22 21 21 23 23 22 21 19 18 19 19 20 21 21 21 20 19 18 18 17 17 17 17 17 17 17 16 16 17 17 17
3 2 3 1 3 4 4 2 1 3 1 2 2 5 2 1 1 1 6 8 7 7 7 7 6 7 7 6 6 6 6 7 7 6 6 4 6 7 8 13 17 15 15 18 20 21 20 19 19 18 18 17 16 17 20 21 19 17 17 19 19 19 20 20 20 21 21 21 22 23 23 22 20 19 19 20 20 20 19 19 20 20 20 19 18 17 17 17 17 18 17 16 16 16 17 17 16
6 5 4 4 3 1 2 2 2 2 2 3 1 4 2 2 2 1 3 6 6 6 6 6 6 6 6 6 6 6 6 7 6 6 5 3 4 6 7 9 12 11 9 12 16 19 20 19 18 16 17 17 16 18 20 19 18 19 19 20 20 19 19 18 18 20 20 20 22 23 23 22 20 19 20 21 20 19 19 19 19 18 18 18 17 17 16 16 17 16 15 14 14 15 16 16 15
5 5 1 3 4 3 1 2 3 3 3 2 1 2 1 2 2 3 5 7 8 7 6 6 6 5 5 5 6 6 6 6 5 5 5 4 3 4 7 6 5 6 5 7 12 16 18 18 19 18 17 18 17 19 19 17 19 21 21 21 19 18 19 19 18 19 20 20 22 22 22 22 21 20 20 20 19 19 19 19 17 17 18 18 16 15 15 15 15 14 13 14 13 12 13 13 11
3 2 0 1 2 3 2 2 3 4 3 2 1 1 2 4 3 2 4 5 6 8 7 5 5 5 4 4 4 5 6 6 5 4 4 4 3 3 7 8 5 5 4 3 7 14 17 17 20 20 19 20 19 19 18 16 18 20 20 20 17 16 18 19 18 18 18 19 20 21 21 21 20 20 19 19 19 18 18 17 16 17 18 17 15 14 13 13 14 13 10 11 12 11 11 10 10
5 4 2 1 1 3 3 2 3 1 3 2 3 2 2 5 4 5 0 2 1 4 6 5 5 5 5 4 5 6 6 7 6 5 5 5 5 6 10 10 8 9 7 3 4 11 16 17 18 18 18 18 19 18 16 15 16 16 16 17 15 15 18 18 18 18 16 17 19 19 19 20 20 20 19 18 18 16 15 15 15 16 16 15 14 14 12 12 13 12 9 9 11 12 11 9 9
Wind_Direction
212 216 222 233 266 296 291 219 143 254 194 266 251 243 246 226 235 264 268 274 296 286 2 76 68 77 88 94 96 75 49 31 53 99 122 139 115 124 136 139 145 148 146 146 148 147 148 151 153 153 154 155 155 154 152 150 151 152 150 149 147 145 141 135 129 124 125 126 127 127 126 129 127 124 121 120 120 120 119 117 115 115 112 110 108 103 101 97 95 97 97 97 98 98 96 97 96
203 221 224 237 271 279 277 183 172 249 164 269 247 226 254 249 242 250 256 263 268 264 37 72 79 93 100 95 86 72 55 38 66 82 102 119 111 118 133 141 147 147 146 148 148 147 148 152 155 155 155 156 156 155 152 153 155 155 153 152 149 148 143 137 131 127 127 128 131 132 131 132 131 129 125 124 124 123 120 120 120 119 117 112 108 106 106 102 98 96 97 99 100 101 99 99 104
207 242 265 263 263 233 286 264 206 236 173 247 251 231 255 262 247 253 271 241 123 57 49 61 58 79 90 75 64 70 73 56 81 93 113 120 112 121 134 142 146 144 145 147 148 148 150 153 156 156 156 157 157 156 155 156 158 159 156 154 152 149 144 138 134 129 128 130 135 135 135 136 134 132 130 130 126 123 122 124 124 122 120 115 112 113 111 108 102 100 100 98 103 107 103 107 111
218 234 267 272 271 225 293 249 196 211 218 241 262 253 245 252 245 241 22 15 35 36 47 70 58 51 77 81 80 77 83 68 83 101 117 120 123 131 135 140 140 139 142 145 150 150 150 154 157 157 158 159 159 158 158 160 162 162 158 155 153 150 146 141 137 132 130 133 138 140 139 139 137 135 135 134 130 129 130 128 124 122 122 122 123 121 116 114 107 105 103 100 107 109 107 112 118
230 231 256 260 254 252 188 241 204 197 229 234 270 279 270 271 232 122 49 355 12 34 36 79 89 51 68 75 88 88 90 76 78 93 97 113 125 131 132 136 135 134 140 146 151 151 150 155 160 159 160 161 160 161 162 164 165 164 159 155 154 151 148 145 141 134 132 136 141 143 143 143 142 141 139 136 136 136 135 130 129 131 132 131 130 126 123 118 113 111 107 107 112 108 110 116 121
235 250 260 248 250 306 253 255 248 235 239 231 257 272 275 288 84 107 82 23 7 29 44 76 100 84 75 63 58 67 108 110 95 99 105 117 126 130 130 132 132 135 142 148 152 152 153 158 162 160 163 163 162 164 165 167 166 164 159 156 156 153 151 148 142 137 135 138 143 146 147 147 146 146 144 141 141 138 136 137 142 143 139 135 130 127 123 116 117 116 114 117 113 101 112 119 124
225 269 268 225 261 291 248 255 259 261 251 235 244 257 262 258 164 103 89 63 359 20 61 84 98 89 79 81 59 48 83 107 107 109 116 123 128 127 128 131 133 138 146 150 153 154 155 159 161 162 164 164 165 166 167 168 167 164 159 158 158 155 152 148 142 138 138 142 145 146 148 150 150 150 148 146 144 141 141 145 147 143 137 132 126 122 119 117 119 121 125 124 99 87 110 116 124
224 256 295 164 263 240 217 256 256 260 261 254 255 268 262 217 148 93 97 99 19 86 110 110 99 85 59 81 82 55 77 96 107 115 119 124 127 127 130 133 135 141 149 151 153 154 154 159 161 163 165 165 166 166 168 166 165 163 160 160 158 156 150 144 141 140 142 144 143 143 146 148 151 151 150 150 147 146 147 147 141 133 128 124 122 121 122 125 127 132 134 123 98 98 110 109 120
219 212 301 206 229 254 245 252 251 254 259 261 262 266 254 214 84 63 58 41 105 77 83 111 100 99 97 86 90 78 81 96 108 114 117 122 124 129 133 135 138 142 149 152 154 154 154 159 160 163 165 166 166 165 166 164 164 161 159 158 156 153 146 141 141 142 142 142 142 143 146 148 150 151 152 152 149 148 146 143 136 129 125 122 124 126 127 128 133 138 131 120 108 120 121 104 112
198 188 256 273 224 257 257 253 252 255 253 256 257 234 200 182 93 72 43 7 349 29 73 84 89 108 111 94 91 97 99 102 104 104 113 124 123 128 133 136 145 146 149 155 155 154 152 156 159 162 164 163 162 163 165 163 162 158 155 155 154 151 143 142 142 142 143 144 146 146 146 146 148 147 148 149 148 150 148 147 139 130 126 124 128 130 129 129 133 135 130 121 108 133 138 107 99
185 200 197 279 258 251 250 256 254 260 259 258 258 209 172 120 100 89 67 351 335 2 101 90 92 108 98 94 95 108 109 103 103 103 113 125 121 124 131 137 148 148 148 155 154 151 149 152 156 160 160 158 159 161 161 160 159 157 155 155 154 149 142 142 143 142 143 145 148 147 146 143 140 138 140 143 142 144 149 151 143 133 127 127 133 135 132 129 130 129 131 117 100 127 134 104 77
238 228 168 229 237 238 246 256 260 267 267 264 258 193 164 120 122 132 120 203 296 270 179 121 129 120 100 112 117 110 108 102 108 111 118 125 119 119 129 136 143 145 149 154 152 148 147 149 152 154 155 155 156 158 158 159 159 157 158 160 155 146 141 142 143 144 145 147 148 146 146 142 137 133 134 136 133 134 142 146 141 135 130 127 128 129 128 129 136 139 134 106 95 112 114 95 66
229 234 178 231 229 237 252 258 265 272 281 273 243 170 153 124 139 136 117 210 250 276 262 127 138 119 106 127 110 113 111 108 114 117 120 122 121 121 128 134 139 146 150 154 152 148 148 149 151 152 152 152 152 155 158 160 160 160 163 162 156 148 143 144 147 151 155 153 149 146 145 143 139 134 131 130 132 132 136 138 132 130 130 129 126 123 130 138 148 152 135 101 96 101 90 81 82
214 237 209 252 258 251 256 262 267 273 286 281 244 126 121 107 114 89 87 29 17 88 102 115 124 100 106 131 113 133 128 117 117 119 120 121 125 124 127 132 140 148 150 154 152 148 149 150 151 151 151 151 151 154 158 160 163 165 167 163 155 149 146 148 154 161 166 158 152 151 146 147 145 137 130 128 134 132 131 132 126 125 126 130 129 124 133 138 132 141 135 106 100 86 66 67 86
207 241 232 258 272 268 267 263 267 272 263 255 280 104 94 58 91 76 67 60 64 82 97 111 111 96 138 161 141 168 142 124 121 121 121 121 125 125 129 134 140 146 149 152 149 148 149 149 151 152 152 152 153 156 157 161 166 166 167 163 153 147 148 156 166 169 169 161 157 154 147 150 150 141 137 135 136 133 129 126 121 119 118 122 124 120 120 113 103 116 126 111 102 84 74 71 79
199 228 243 264 263 268 268 263 274 274 262 259 278 193 106 68 95 102 135 119 80 64 63 67 360 125 162 166 141 153 142 129 126 124 123 122 125 128 131 134 138 142 148 147 145 147 149 150 152 153 154 155 157 158 160 163 165 165 162 156 150 152 158 169 174 165 163 162 160 158 151 149 149 146 145 144 142 138 130 122 114 107 111 115 110 106 102 96 92 99 107 106 102 93 89 80 84
201 216 234 264 257 261 261 258 271 267 290 324 330 348 77 89 78 136 146 99 85 77 69 50 26 104 146 136 136 143 138 132 129 126 125 127 129 132 132 133 136 141 146 145 144 148 150 151 151 152 154 159 162 162 163 163 163 162 154 146 145 156 167 178 172 158 157 160 158 160 156 149 151 154 149 150 154 147 132 120 111 104 114 114 100 95 92 90 92 96 99 99 98 96 102 97 98
215 205 215 243 247 250 254 254 273 291 17 346 344 2 55 93 54 340 71 96 93 81 76 74 60 69 99 117 132 136 135 134 131 129 132 137 137 139 138 137 139 143 145 145 148 151 150 148 147 150 154 161 164 163 162 160 160 155 148 148 146 152 165 170 163 154 155 155 154 156 155 149 149 153 154 159 160 147 127 109 104 111 120 109 95 91 90 91 90 90 90 93 99 104 109 106 103
225 211 213 229 238 249 259 272 288 306 29 1 1 357 357 48 71 6 33 111 105 90 83 88 84 86 96 114 128 130 134 136 133 135 142 147 145 145 144 147 146 145 145 147 152 153 148 144 147 152 155 160 162 160 158 155 153 148 149 153 151 151 160 163 156 150 154 155 152 153 153 149 151 157 163 164 153 136 122 107 110 122 121 103 92 89 91 94 91 88 89 94 101 107 110 103 94
228 220 229 239 239 253 264 268 275 278 302 41 81 4 335 355 75 128 94 96 101 111 118 103 108 116 116 125 129 130 135 138 139 141 148 151 150 150 151 154 151 147 151 154 155 151 146 143 148 154 157 161 160 159 157 152 149 148 149 151 151 152 149 153 156 155 159 159 156 158 159 158 162 162 158 159 148 133 126 123 126 123 113 99 90 93 101 103 99 94 91 94 97 104 110 92 55
222 212 225 250 251 263 261 257 273 283 298 45 113 89 346 315 316 57 98 100 97 127 140 129 132 134 132 137 138 138 139 141 148 150 154 155 155 158 160 159 155 153 156 159 156 148 145 145 150 156 160 162 162 161 157 153 152 148 144 149 154 155 153 153 156 159 162 163 164 167 166 162 163 158 154 162 155 143 140 133 124 113 107 102 101 110 118 116 110 104 94 95 105 122 345 326 317
237 231 226 242 253 266 268 275 297 301 332 47 31 52 352 325 354 358 35 128 156 144 139 137 138 139 139 143 145 142 144 151 157 160 162 160 161 167 168 160 153 155 159 161 157 148 145 149 155 160 163 164 161 160 157 155 153 148 147 156 158 156 165 162 157 160 164 169 175 174 169 165 162 157 159 163 156 153 147 131 117 109 108 111 123 138 136 131 126 126 108 104 129 172 337 336 342
238 253 236 238 241 251 269 283 292 311 357 47 19 344 341 349 13 314 297 217 156 134 131 133 134 138 138 141 146 146 155 159 164 172 167 158 162 169 167 156 149 153 159 162 156 148 148 153 160 166 165 158 154 158 161 156 149 149 160 170 167 161 166 165 159 162 169 174 178 177 173 169 164 159 164 167 160 157 148 139 134 129 131 134 156 192 203 203 191 139 136 260 305 317 310 2 59
236 248 247 249 247 249 263 269 263 261 331 66 37 331 329 330 349 293 289 77 118 121 124 128 128 133 136 142 150 153 159 160 171 174 155 155 165 161 157 149 148 152 154 155 148 141 144 153 165 170 163 149 151 163 162 153 147 152 166 172 169 163 163 165 163 167 173 178 181 180 175 172 168 164 168 170 162 162 165 164 161 157 162 168 184 211 231 247 280 289 280 284 295 299 281 354 64
243 242 244 251 256 261 268 272 270 234 182 120 123 280 290 278 308 298 295 94 124 133 131 131 130 134 140 146 151 154 160 167 177 160 144 163 172 153 147 145 146 146 142 139 130 126 139 157 170 170 159 151 154 161 156 149 148 152 161 167 166 162 163 166 167 171 176 180 184 183 179 176 174 173 173 173 169 173 185 182 177 174 178 195 212 222 233 251 287 285 279 283 268 255 285 313 27
249 245 242 245 252 260 268 273 277 269 198 146 164 202 254 271 57 297 291 110 133 140 138 139 139 141 145 149 155 162 166 173 178 157 152 172 174 149 145 142 136 123 115 119 115 123 148 165 174 168 157 157 156 153 152 147 146 154 161 165 162 161 165 168 171 178 182 182 183 184 188 184 182 189 183 177 176 180 188 185 185 190 197 215 230 231 241 253 276 281 284 305 215 173 360 300 5
257 260 250 241 248 253 257 263 270 281 229 141 144 213 235 247 130 261 288 173 137 140 142 143 139 140 149 157 163 170 169 174 180 164 154 169 173 150 133 118 108 101 108 119 124 136 154 164 172 169 156 158 158 151 150 147 147 156 161 163 155 152 160 170 178 183 181 181 183 185 190 188 190 199 194 187 186 188 196 192 189 199 205 216 230 230 239 242 213 227 299 77 151 148 118 272 21
274 281 277 256 253 254 253 258 268 287 252 149 155 246 237 227 187 210 267 255 144 145 146 142 140 142 153 163 165 170 169 171 175 169 159 164 156 127 111 115 114 109 116 122 135 148 157 161 166 169 160 156 157 150 148 150 152 153 154 158 155 155 163 172 180 181 177 180 185 188 190 191 193 197 199 199 191 193 200 196 197 202 201 204 215 218 228 230 210 216 173 94 162 188 187 228 4
276 279 282 276 270 258 252 259 274 282 238 167 173 234 246 233 223 201 226 257 171 149 149 144 146 148 156 165 167 166 161 167 168 167 166 141 115 109 110 131 132 119 117 114 136 159 162 160 162 166 159 153 152 149 149 150 150 150 151 156 159 164 169 170 175 177 178 184 191 196 197 198 198 197 202 201 190 190 196 197 202 197 192 193 196 204 215 217 216 219 187 130 156 200 195 183 17
272 270 265 278 293 270 249 245 266 271 223 175 171 216 247 233 236 220 209 237 229 157 150 152 152 151 157 164 168 165 153 160 157 152 141 106 101 112 111 121 126 123 129 128 144 162 161 159 161 162 156 153 152 149 151 151 149 150 152 159 164 168 169 167 173 177 180 187 196 202 203 201 198 197 204 201 191 191 195 197 192 193 200 182 171 181 188 179 203 217 195 165 157 176 170 86 41
277 279 272 253 266 277 267 241 247 256 217 178 171 200 239 230 230 231 213 216 227 184 152 157 155 151 156 160 164 164 152 149 149 138 112 94 98 111 109 107 114 120 132 140 153 158 157 160 160 156 153 154 152 146 148 150 150 152 154 161 165 167 169 169 176 180 179 184 192 202 207 203 198 200 202 193 191 193 192 194 185 186 190 164 159 156 153 157 172 187 176 167 158 147 88 50 33
261 257 278 252 231 257 269 254 242 242 224 186 184 212 231 230 234 232 219 206 215 204 163 159 158 154 154 161 164 154 143 141 132 104 90 93 100 109 112 114 121 128 139 153 161 155 155 162 159 154 150 145 141 139 143 148 148 149 151 154 156 161 167 170 174 175 179 185 189 198 203 202 202 199 193 186 187 186 178 186 175 164 159 148 148 135 133 138 130 143 146 146 132 96 66 55 37
259 221 240 251 240 246 248 244 238 236 232 195 196 217 218 228 244 238 222 208 213 202 165 160 159 155 154 160 160 142 136 132 103 85 91 101 108 114 121 128 139 153 164 161 158 156 156 159 156 153 148 140 136 136 140 144 144 146 148 150 155 163 171 175 173 169 178 185 186 193 191 191 188 180 184 184 181 173 170 177 162 151 152 150 151 140 137 125 114 135 129 123 121 87 60 51 36
268 232 222 242 239 240 246 240 233 227 224 208 200 207 218 228 239 246 230 211 213 196 164 162 156 150 158 159 150 145 134 111 89 92 103 110 115 124 129 140 157 168 170 160 154 155 154 154 154 154 151 145 140 139 141 143 143 145 149 150 156 165 171 172 167 160 164 169 177 188 179 172 168 165 176 183 177 159 155 164 153 149 154 159 166 152 156 154 125 134 128 124 123 102 71 53 49
246 234 210 234 238 241 246 244 236 215 209 210 199 198 221 237 240 259 252 213 218 207 168 149 151 153 159 158 146 133 101 88 95 105 112 118 124 130 133 147 165 164 160 156 153 155 153 153 156 156 155 151 146 143 142 143 143 145 148 146 151 161 163 162 158 149 147 150 159 167 161 158 161 160 165 176 176 156 153 158 152 153 155 164 176 164 166 164 148 147 130 116 113 111 88 71 80
246 250 233 242 242 244 247 243 235 212 199 203 197 189 209 228 238 257 265 272 274 222 175 141 148 154 153 153 124 92 86 88 99 106 114 121 125 131 136 144 156 158 157 157 156 158 157 155 156 155 155 154 151 147 143 142 142 143 144 140 144 151 151 153 151 145 151 159 155 151 147 146 150 148 153 169 172 156 154 154 151 158 162 171 177 168 157 136 145 155 132 114 110 121 107 90 101
259 270 280 279 269 263 262 254 239 213 188 196 193 177 199 216 227 243 254 263 272 196 158 143 140 153 155 124 87 83 92 99 102 103 112 120 122 132 139 141 151 159 162 160 158 160 160 158 157 156 157 157 155 152 148 145 144 145 146 147 149 147 141 145 150 155 161 160 154 152 151 151 151 151 155 164 164 149 148 145 146 152 153 161 167 165 152 130 127 128 143 159 143 148 150 130 131
265 269 280 289 285 285 281 272 248 205 154 181 186 166 196 207 216 237 231 203 235 130 140 151 143 153 136 98 91 96 102 106 105 100 107 118 125 138 142 147 156 163 166 166 161 160 161 159 157 157 159 159 157 155 151 148 149 149 150 154 158 157 154 153 155 155 150 145 149 153 155 155 150 145 141 137 130 122 127 132 133 127 117 126 144 154 148 139 135 125 162 185 165 164 168 158 157
263 276 287 288 284 296 293 291 273 160 118 162 182 170 209 209 211 238 222 175 197 158 154 151 128 122 105 102 109 111 110 110 112 114 124 127 134 145 147 153 163 168 170 167 160 157 158 159 157 157 157 156 154 152 149 148 149 148 149 151 155 158 158 154 151 147 142 139 139 138 140 142 137 133 128 121 118 114 115 119 118 110 101 107 119 130 136 140 153 165 177 183 173 163 151 154 175
253 267 281 280 275 298 315 325 357 58 83 112 130 90 281 257 260 264 243 197 179 155 126 89 90 102 107 115 116 115 120 124 126 135 141 136 143 151 149 155 167 173 169 161 156 157 159 160 159 158 155 153 154 152 149 150 152 152 152 152 151 151 150 148 145 145 146 144 140 137 134 134 132 132 131 128 124 121 122 121 124 124 119 131 125 105 118 166 182 175 165 172 175 162 145 154 184
271 247 249 271 276 286 322 322 333 9 30 77 83 35 332 311 313 293 273 194 145 130 93 81 89 105 114 119 121 128 133 134 136 142 144 143 148 150 150 159 172 173 165 159 160 161 161 160 161 160 154 154 157 154 150 148 150 148 145 144 144 144 145 148 148 149 150 148 148 149 144 137 135 135 138 140 135 131 131 132 139 140 128 137 138 112 106 122 145 147 134 154 178 172 154 154 164
298 262 244 256 269 279 307 309 316 11 9 357 92 72 301 296 278 270 276 125 124 99 87 92 99 105 114 122 131 130 120 122 133 138 143 145 146 145 153 168 174 171 167 166 166 165 164 164 164 161 156 157 159 154 148 145 146 144 140 139 141 144 148 150 150 149 150 149 143 138 136 135 135 132 128 133 139 136 132 132 139 140 125 121 124 118 112 106 109 122 126 137 158 166 160 149 141
273 244 241 255 264 270 277 292 304 6 232 262 115 128 258 292 277 256 216 121 105 87 88 100 104 109 119 126 134 126 112 116 123 132 142 145 147 148 160 174 172 169 172 173 171 169 168 167 167 165 161 160 159 154 150 148 149 149 148 147 146 149 151 150 150 148 147 146 139 134 134 131 131 129 122 124 130 131 132 133 137 142 137 127 119 113 112 105 101 107 115 125 134 146 152 138 128
245 231 244 263 267 266 250 253 272 232 180 301 117 132 176 285 273 254 184 126 108 101 100 103 109 119 126 126 132 127 123 129 128 135 143 147 153 155 164 173 168 168 175 177 176 174 172 170 169 168 166 163 159 154 153 155 156 155 154 152 151 155 156 152 150 148 147 145 136 132 131 129 129 129 129 131 132 135 133 122 133 143 137 130 123 113 108 106 106 106 108 113 117 121 122 118 120
243 232 237 257 265 262 244 221 256 246 90 329 283 138 154 266 274 267 178 141 138 123 117 119 125 130 130 129 129 123 127 137 137 144 150 151 157 161 164 166 164 168 174 177 177 176 175 172 169 169 169 166 161 157 158 161 160 157 156 157 158 158 155 150 148 146 147 145 137 132 131 130 130 129 133 137 140 146 129 102 124 141 130 123 122 116 113 109 107 107 106 107 107 109 108 104 106
231 231 242 264 269 261 232 203 231 111 101 251 264 171 157 270 286 282 203 159 160 128 113 119 127 129 127 125 123 123 129 135 134 142 148 146 152 161 161 156 159 167 172 176 178 178 176 173 173 172 169 167 165 165 166 164 161 160 161 162 157 149 146 147 146 145 147 146 140 135 134 133 134 134 136 138 139 142 125 104 117 130 123 114 111 111 115 112 108 110 111 110 109 109 109 101 95
213 221 239 262 275 284 255 200 164 98 202 228 236 210 157 264 291 290 276 216 156 126 110 114 115 113 117 117 118 122 124 124 126 128 130 135 145 154 150 148 155 165 171 175 178 182 180 177 176 174 172 170 170 172 172 168 168 169 167 161 150 146 147 147 147 147 147 145 140 137 136 135 134 134 132 131 133 134 124 112 114 119 116 110 107 109 113 111 108 111 114 116 109 103 106 103 91
204 200 190 245 289 321 326 285 155 197 253 231 221 207 141 165 273 300 322 332 128 125 125 126 125 127 129 118 103 101 103 110 122 125 128 135 143 148 144 145 153 162 171 175 178 183 184 181 179 176 175 174 174 176 172 170 173 169 163 157 153 152 152 151 151 151 148 145 142 141 141 136 131 132 132 131 132 132 127 119 113 113 113 114 115 115 114 113 111 110 111 116 111 101 100 96 86
192 171 144 153 303 345 337 262 213 210 246 230 204 176 120 164 252 311 18 45 87 114 130 132 134 140 135 116 103 102 95 96 116 130 136 140 147 153 148 149 155 163 172 175 178 182 184 185 183 179 177 175 176 176 172 174 173 164 160 159 159 159 156 155 154 153 152 150 149 148 147 142 137 135 136 134 133 134 132 124 115 111 112 117 120 117 116 115 113 110 107 111 110 103 99 92 85
189 163 147 163 166 136 245 246 222 208 265 261 197 124 92 210 271 3 54 60 67 104 131 136 132 133 124 112 106 102 94 94 112 130 137 145 154 156 154 156 159 161 170 176 179 183 184 186 186 181 178 177 178 175 173 177 171 160 161 162 162 161 159 159 157 155 156 156 153 150 148 147 144 140 139 137 136 136 134 129 121 112 110 118 123 121 121 118 114 109 105 105 105 104 100 92 85
228 202 157 172 163 158 202 216 215 215 264 300 336 95 156 217 236 54 81 72 60 83 108 115 112 114 113 108 104 100 96 102 112 112 110 122 161 164 157 156 161 161 168 177 183 185 187 187 186 184 180 177 177 176 176 177 170 159 159 162 164 162 160 161 160 158 159 157 153 150 149 149 146 143 141 138 137 135 134 134 129 118 112 116 121 120 118 115 109 104 100 99 100 102 99 92 89
279 247 175 215 198 150 148 172 191 180 96 320 344 88 223 197 205 69 86 80 69 77 89 99 104 105 107 105 105 111 113 116 121 120 115 114 194 185 162 152 162 168 169 177 185 187 188 188 187 186 183 179 176 177 177 176 168 158 155 159 161 161 161 161 161 162 161 157 153 152 151 150 148 147 143 140 138 134 131 130 128 124 119 117 118 117 116 115 110 107 105 102 100 102 99 95 95
290 303 215 223 184 134 130 181 192 85 83 265 91 76 328 129 114 45 75 80 80 84 88 98 107 108 110 115 121 127 133 133 128 133 146 154 185 195 165 148 159 172 175 179 185 189 187 185 186 183 180 176 174 176 175 172 166 157 154 156 158 161 163 164 164 165 162 156 155 154 151 150 150 148 145 142 138 134 130 127 127 129 126 123 122 122 122 122 119 116 114 111 109 110 107 102 100
157 244 209 121 46 86 111 124 29 60 110 255 144 139 154 110 125 58 84 88 89 94 91 87 88 95 104 105 105 111 122 128 122 123 144 149 147 167 161 147 155 171 184 183 182 185 185 183 184 180 173 171 171 172 169 167 164 158 157 158 159 163 166 167 168 164 159 157 158 155 152 152 152 149 145 141 137 135 134 134 134 132 128 124 122 121 123 122 120 116 115 115 115 116 114 110 106
177 215 187 102 65 357 44 109 147 130 159 291 318 138 124 25 330 294 136 128 120 114 106 97 87 88 99 96 94 102 111 124 124 117 131 133 128 156 173 162 155 158 183 192 179 174 175 178 178 172 169 168 167 169 168 165 164 161 159 159 160 165 168 169 167 160 158 159 158 156 155 153 152 149 146 142 141 141 141 139 137 134 130 128 125 124 124 121 120 120 120 120 117 115 113 109 107
214 226 197 99 131 158 160 165 156 140 166 241 338 66 8 291 301 279 208 161 141 137 126 118 116 107 113 115 116 123 119 121 122 112 129 139 119 158 173 168 143 127 153 192 174 154 150 160 165 163 165 166 165 168 169 165 162 160 157 156 158 163 169 168 163 160 160 160 158 157 157 155 153 151 147 146 147 145 144 142 139 138 136 132 131 131 129 126 125 126 127 125 119 115 113 108 105
288 271 308 87 133 133 151 202 166 137 151 182 117 63 287 272 319 328 196 169 147 146 134 124 129 123 121 116 106 117 120 117 118 118 134 131 95 108 141 150 166 156 138 134 134 133 135 144 153 157 160 161 161 166 167 163 161 158 155 154 153 154 161 163 162 160 159 159 160 159 157 155 154 154 152 152 150 147 147 145 142 142 140 136 136 134 133 132 131 128 126 133 131 120 117 116 112
27 30 10 296 195 132 122 265 279 127 132 167 154 130 280 288 352 13 180 171 111 125 124 126 135 131 126 99 76 91 116 123 129 134 141 147 137 113 115 132 166 167 151 106 102 140 148 146 149 155 159 160 158 155 152 152 157 158 155 155 150 146 150 154 158 160 158 157 159 160 160 158 157 158 158 155 152 151 152 149 146 146 142 140 140 135 133 132 132 129 117 123 132 122 114 116 116